Location: Barcelona
(41.3830°N, 2.1830°E)
Time: 16:21:25
(UTC+01:00)

ISS - Pass Details

Date: 15 February 2018
Orbit: 403 x 406 km, 51.6° (Epoch: 26 February)

Event Time Altitude Azimuth Distance (km) Brightness Sun altitude
Rises 19:08:25 0° 289° (WNW) 2,318 1.3 -8.8°
Reaches altitude 10° 19:11:15 10° 262° (W) 1,454 0.7 -9.3°
Maximum altitude 19:12:59 14° 230° (SW) 1,250 -0.4 -9.6°
Drops below altitude 10° 19:14:42 10° 197° (SSW) 1,449 -0.7 -10.0°
Sets 19:17:32 0° 170° (S) 2,304 0.0 -10.5°
